CZ-6A DEB

Satellite information

Favourite Embed

Satellite Type and Status

DEBRISIN ORBIT

Key statistics

Satellite CZ-6A DEB at a glance.

Uptime

908

Days in orbit

Revolutions

≈ 14.3

Per day

Orbit

SSO

Sun Synchronous Orbit

Inclination

98.8

Latest

Satellite identification and parameters

Extended collection of information and parameters for CZ-6A DEB.

Object identification

Identified? True

Debris? True

Object name: CZ-6A DEB

International designator: 2022-151WB

Object number (NORAD): 55210

Object ID (CCSDS): 55210

Country: PEOPLES REPUBLIC OF CHINA (PRC)

Current information (Y/N): Y

RCS size: SMALL

Orbital parameters

Period: 100.438 minutes

Inclination: 98.7726 deg

SMA: 7157.439 km

Apoapsis: 810.341 km

Periapsis: 748.267 km

RAAN: 148.4122 deg

Eccentricy: 0.0043363

Argument of periapsis: 64.9572 deg

Mean anomaly: 295.6104 deg

Mean motion: 14.33726435 rev/day

Mean motion (dot): 0.00007819 rev/day2

B* drag term: 0.0027999 1/REarth

Two-line elements (TLE)

Creation date: May 7, 2025, 3:14 a.m.

Reference frame: TEME

Reference center: EARTH

Epoch: May 6, 2025, 12:50 a.m. UTC

TLE line 0: 0 CZ-6A DEB

TLE line 1: 1 55210U 22151WB 25126.03473555 .00007819 00000-0 27999-2 0 9995

TLE line 2: 2 55210 98.7726 148.4122 0043363 64.9572 295.6104 14.33726435123481

Live tracking on map

Real-time ground track for satellite CZ-6A DEB.

In-orbit conjunctions

A list of the most updated potential collisions computed for object CZ-6A DEB.

Target Orbit TCA Probability of collision Miss distance Type
CZ-6A DEB LEO 2025-04-10 10:33:33 0.0001316397 131.0 (m) DEBRIS
METEOR 2-8 DEB LEO 2025-01-16 19:29:49 0.0001307063 154.0 (m) DEBRIS
ADEOS 2 SSO 2025-01-16 01:52:18 0.0002361313 475.0 (m) PAYLOAD
METEOR 2-6 LEO 2024-08-16 09:22:49 0.0001945668 50.0 (m) PAYLOAD

Associated space launch

Chinese satellite reported for atmospheric/ocean/environmental/spatial parameter research purposes, details TBD.

CZ-6A DEB was lifted into orbit during the mission ‘Long March 6A | Yunhai 3’, on board a Long March 6A space rocket.

The launch took place on Nov. 11, 2022, 10:52 p.m. from Launch Complex 9A.

For more information about the launch, click the button.

Launch to space Long March 6A | Yunhai 3
Long March 6A | Yunhai 3

Agency: N/A

Status: Launch Successful

Launch date: Nov. 11, 2022, 10:52 p.m. UTC

Rocket: Long March 6A

Launch pad: Launch Complex 9A

Location: Taiyuan Satellite Launch Center, People's Republic of China

...

Latest news about this satellite

There are no fresh news available about this satellite. Check back as we update our databases every day.


Newsletter sign-up

Weekly statistics, charts and insights to help you stay on top of the space industry.